Location: �terpigny
(49.8910°N, 2.9249°E)
Time: 12:53:22
(UTC+00:00)

RS-44 - Pass Details

Date: 04 July 2022
Orbit: 1175 x 1510 km, 82.5° (Epoch: 12 August)

Event Time Altitude Azimuth Distance (km) Brightness Sun altitude
Rises 22:41:15 0° 259° (WSW) 4,481 ? -15.6°
Reaches altitude 10° 22:45:41 10° 280° (W) 3,568 ? -15.8°
Maximum altitude 22:50:30 16° 315° (NW) 3,186 ? -16.0°
Drops below altitude 10° 22:55:28 10° 350° (N) 3,664 ? -16.2°
Sets 23:00:10 0° 11° (N) 4,665 ? -16.4°
